Hourly Data Report for September 20, 2017

All times are specified in Local Standard Time (LST). Add 1 hour to adjust for Daylight Saving Time where and when it is observed.

EUREKA CLIMATE
NUNAVUT

79°59'21.000" N
85°56'02.000" W
10.00 m
2401199
71613
NEK

Download Data

Hourly Data (September 2017)
Hourly Data Report for September 20, 2017
Temp Definition
°C
Dew Point Temp Definition
°C
Rel Hum Definition
%
Wind Dir Definition
10's deg

Wind Spd Definition
km/h
Visibility Definition
km
Stn Press Definition
kPa
Hmdx Definition


Wind Chill Definition


Weather Definition


TIME
00:00 -12.9 -13.8 93 11 3   102.77   -15 LegendNANA
01:00 -12.1 -12.8 94 10 3   102.76   -14 LegendNANA
02:00 -9.9 -10.4 96 10 6   102.74   -13 LegendNANA
03:00 -9.2 -9.7 96 12 3   102.75   -11 LegendNANA
04:00 -9.4 -9.9 96 11 6   102.74   -13 LegendNANA
05:00 -9.7 -10.3 96 11 5   102.76   -13 LegendNANA
06:00 -8.8 -9.3 96 13 5   102.75   -12 LegendNANA
07:00 -8.4 -8.9 96 12 7   102.72   -12 LegendNANA
08:00 -9.5 -10.1 96 13 6   102.74   -13 LegendNANA
09:00 -8.8 -9.3 96 13 5   102.72   -12 LegendNANA
10:00 -8.6 -9.2 96 12 6   102.71   -12 LegendNANA
11:00 -8.8 -9.3 96 13 7   102.68   -13 LegendNANA
12:00 -8.5 -9.1 96 13 12   102.65   -14 LegendNANA
13:00 -8.6 -9.2 95 13 14   102.66   -15 LegendNANA
14:00 -8.6 -9.3 95 13 10   102.65   -14 LegendNANA
15:00 -9.0 -9.8 94 13 10   102.65   -14 LegendNANA
16:00 -10.7 -11.5 93 12 7   102.67   -15 LegendNANA
17:00 -10.3 -11.3 92 11 10   102.65   -16 LegendNANA
18:00 -10.4 -11.3 93 11 8   102.64   -15 LegendNANA
19:00 -12.0 -13.0 92 9 8   102.64   -17 LegendNANA
20:00 -11.6 -12.7 91 5 8   102.65   -16 LegendNANA
21:00 -10.0 -11.1 92 8 9   102.65   -15 LegendNANA
22:00 -11.6 -12.7 91 9 5   102.63   -15 LegendNANA
23:00 -10.5 -11.8 90 4 8   102.60   -15 LegendNANA

Notes on Data Quality.

Legend

  • E = Estimated
  • M = Missing
  • NA = Not Available
  • ‡ = Partner data that is not subject to review by the National Climate Archives
Date modified: